www.pogodaiklimat.ru

Погода и климат >> Архив погоды >> Россия >> Ненецкий АО >> Амдерма


ПОГОДА в Амдерме

  • Прогноз погоды в Амдерме
  • Монитор погоды в Амдерме
  • Климат города

АРХИВ ПОГОДЫ в Амдерме

Время (UTC), дата Ветер
(напр.,м/с)
 
Видим.   Явления Облачность Т
(С)
Тd
(С)
f
(%)
Тe
(С)
Тes
(С)
Комфортность P
(гПа)
Po
(гПа)
Тmin
(С)
Tmax
(С)
R
(мм)
R24
(мм)
S
(см)
18 9.08 С 4 10 км 10/10 360 м
[Sc]
+3.7 +1.5 86 -1 -1 1022.6 1016.2
21 9.08 С 4 10 км 10/10 400 м
[Sc]
+3.1 +1.6 90 -2 -2 1022.5 1016.1
00 10.08 С 5 10 км 10/10 400 м
[Sc]
+3.7 +1.7 87 -1 -1 1022.3 1015.9
03 10.08 С 5 10 км 10/10 400 м
[Sc]
+3.7 +1.8 87 -1 -1 1021.8 1015.4 +3.0
06 10.08 С 5 10 км слабый дождь 10/10 570 м
[Sc]
+4.3 +2.3 87 -1 -1 1021.5 1015.1
09 10.08 С 5 10 км в посл. час дождь 10/10 540 м
[Sc]
+4.8 +2.3 84 0 0 1021.3 1015.0
12 10.08 С 5 10 км {дождь} 9/9 600 м
[Sc]
+4.5 +2.6 87 -0 -0 1021.0 1014.6
15 10.08 СВ 7-10
{10}
10 км {дождь} 10/10 500 м
[Sc]
+3.9 +1.9 87 -2 -2 1020.4 1014.0 +5.2
18 10.08 С 5
{10}
10 км слабый дождь 10/10 400 м
[Sc]
+3.6 +2.1 90 -2 -2 1019.4 1013.1
21 10.08 СВ 5 10 км {дождь} 10/10 450 м
[Sc]
+3.6 +1.8 88 -2 -2 1018.5 1012.1
00 11.08 С 5 10 км {дождь} 10/10 480 м
[Sc]
+3.5 +1.2 85 -2 -2 1017.7 1011.4
03 11.08 СВ 5 10 км в посл. час дождь 10/10 400 м
[Sc]
+4.3 +2.3 87 -1 -1 1016.6 1010.2 +3.1
06 11.08 СВ 5 10 км {дождь} 10/10 630 м
[Sc]
+4.4 +2.4 87 -1 -1 1015.4 1009.1
09 11.08 СВ 6 10 км 9/9 660 м
[Sc]
+5.4 +2.1 79 +1 +1 1014.9 1008.6
12 11.08 СВ 6 10 км 9/9 660 м
[Sc]
+5.4 +2.1 79 +1 +1 1014.9 1008.6
15 11.08 СВ 4 10 км 10/10 600 м
[Sc]
+4.5 +2.1 84 0 0 1014.2 1007.9 +5.7
18 11.08 СВ 3 10 км 10/10 500 м
[Sc]
+3.7 +1.9 88 -0 -0 1013.5 1007.1
21 11.08 С 3 10 км 10/10 570 м
[Sc]
+3.4 +0.6 82 -0 -0 1012.9 1006.6
00 12.08 С 3 10 км 10/10 600 м
[Sc]
+3.1 +0.5 83 -1 -1 1012.4 1006.1
03 12.08 СЗ 4 10 км 10/10 540 м
[Sc]
+3.0 +0.2 82 -2 -2 1011.7 1005.4 +2.9
06 12.08 С 4 10 км 8/8 300 м
[Cu Sc Ac cuf Ci fib]
+3.9 +0.7 80 -1 0 1011.7 1005.4
09 12.08 С 5 10 км {ливн. осадки} 8/8 300 м
[Sc]
+4.5 +0.7 76 -0 +1 1012.1 1005.8
12 12.08 С 5 10 км {ливн. осадки} 9/9 300 м
[Sc]
+4.5 +1.2 79 -0 0 1012.9 1006.6
15 12.08 С 3 10 км 9/9 660 м
[Sc]
+4.1 +1.3 82 0 0 1013.2 1006.9 +5.2
18 12.08 С 2 10 км 9/9 600 м
[Sc]
+3.9 +0.6 79 +1 +1 1013.5 1007.2
21 12.08 10 км н/о +2.6 +0.7 87 -1 -1 1013.5 1007.1
00 13.08 Ю 3 10 км 9/9 480 м
[Sc]
+0.6 +1.3 100 -4 -4 1013.7 1007.3
03 13.08 Ю 4 10 км 9/6 540 м
[Sc Ac und Ci fib]
+3.3 +0.7 83 -1 -1 1013.2 1006.9 +0.2
06 13.08 Ю 4 10 км 10/8 800 м
[Sc Ac und]
+6.6 +3.1 78 +3 +3 1012.8 1006.6
09 13.08 ЮВ 4 10 км 10/0
[Ac und]
+10.7 +3.3 60 +9 +10 1011.8 1005.7
12 13.08 ЮВ 4
{10}
10 км {ливн. осадки} 10/8 930 м
[Sc Ac und]
+11.7 +5.8 67 +10 +10 1010.9 1004.8
15 13.08 Ю 6 10 км 9/8 750 м
[Sc Ac trans]
+13.1 +8.3 73 +11 +11 1009.4 1003.4 +13.5 0.0
18 13.08 Ю 6 10 км 9/3 600 м
[Sc Ac trans Ci sp]
+9.3 +6.6 83 +6 +6 1008.0 1001.8
21 13.08 Ю 7
{10}
10 км 10/4 600 м
[Sc Ac und]
+11.7 +9.2 85 +9 +9 1005.8 999.7
00 14.08 Ю 5
{11}
10 км слабый ливневой дождь 10/10 420 м
[Cb cap]
+13.4 +12.8 96 +11 +11 1004.4 998.3
03 14.08 Ю 9-12
{12}
10 км слабый ливневой дождь 10/10 480 м
[Cb cap]
+14.1 +13.3 95 +11 +11 1001.8 995.8 +9.2 6
06 14.08 ЮЗ 8-12
{14}
10 км {ливн. осадки} 10/10 500 м
[Sc]
+16.0 +14.7 92 +14 +14 1001.3 995.3
09 14.08 ЮЗ 7-11
{13}
2000 м дымка 10/10 480 м
[Sc]
+16.2 +15.4 95 +15 +15 1001.7 995.8
12 14.08 ЮЗ 6
{11}
10 км в посл. час ливневой дождь 9/8 540 м
[Sc Ac trans]
+16.2 +15.4 95 +15 +15 1002.3 996.3
15 14.08 ЮЗ 9-14
{14}
10 км {ливн. осадки} 9/0
[Ac trans Ci fib]
+14.8 +12.7 87 +12 +12 1002.7 996.8 +17.0 1
18 14.08 ЮЗ 7-10
{15}
10 км {ливн. осадки} 8/3 600 м
[Sc Ac trans Ci fib]
+12.6 +11.7 94 +10 +10 1003.5 997.4
21 14.08 ЮЗ 9-13
{15}
2000 м слабая морось 10/10 210 м
[St]
+9.7 +9.2 97 +5 +5 1004.4 998.3
00 15.08 З 7-10
{15}
10 км {морось} 10/10 400 м
[Sc]
+9.3 +7.9 91 +5 +5 1005.7 999.6
03 15.08 З 7-11
{13}
10 км 9/8 500 м
[Sc Ac trans]
+9.9 +8.6 92 +6 +6 1006.5 1000.3 +9.2
06 15.08 З 6-10
{12}
10 км {дождь} 10/9 630 м
[Sc]
+9.5 +2.6 62 +6 +6 1008.2 1002.1 +8.8
09 15.08 З 7-10
{10}
10 км 8/5 480 м
[Sc Ac trans Ci fib]
+12.7 +9.0 78 +10 +11 1009.8 1003.7
12 15.08 ЮЗ 7
{11}
10 км 8/6 630 м
[Sc Ac trans]
+12.9 +8.0 72 +10 +10 1011.3 1005.2
15 15.08 Ю 6
{10}
10 км 4/0
[Ac trans Cc]
+11.5 +7.0 74 +9 +9 1011.0 1004.9 +13.2
18 15.08 ЮЗ 6
{13}
10 км {ливн. осадки} 8/6 500 м
[Cu Sc Ac trans]
+10.1 +7.7 85 +7 +7 1010.1 1004.0
21 15.08 ЮЗ 8-12
{13}
10 км в посл. час ливневой дождь 5/5 300 м
[Sc]
+8.6 +7.7 94 +4 +4 1010.0 1003.8
00 16.08 ЮЗ 6
{13}
10 км {ливн. осадки} 4/4 300 м
[Sc]
+7.8 +6.5 91 +3 +3 1010.8 1004.6
03 16.08 З 6-10
{14}
10 км в посл. час ливневой дождь 9/9 540 м
[Sc]
+8.3 +5.9 85 +4 +4 1011.9 1005.7 +7.8 0.0
06 16.08 З 6-11
{12}
10 км {ливн. осадки} 10/10 400 м
[Cu Sc]
+9.1 +5.9 80 +5 +5 1013.1 1000.6
09 16.08 З 9-12
{14}
10 км 9/9 400 м
[Cu Sc]
+10.2 +7.4 83 +6 +6 1013.7 1007.5
12 16.08 З 10-14
{17}
10 км в посл. час ливневой дождь 9/4 300 м
[Cu Sc Ac cuf]
+10.1 +6.6 79 +6 +6 1013.8 1007.6
15 16.08 З 7-10
{14}
10 км 9/6 400 м
[Cu med, cong Ac cuf Ci fib]
+9.5 +6.9 84 +6 +6 1014.0 1007.8 +11.3

 

Местоположение метеостанции Амдерма (Ненецкий АО, Россия): широта 69.77 долгота 61.68 высота над уровнем моря 48 м.

В архиве по умолчанию представлена погода в Амдерме за последнюю неделю. Архивные данные за месяц целиком и за предыдущие месяцы, начиная с января 2011 года, Вы можете получить, выбрав интересующий диапазон дат из раскрывающегося списка и нажав кнопку "Ввод!".

Внимание! Время в таблицах - всемирное. Для получения местного времени необходимо прибавить поправку, которая в Амдерме равна 3 ч.

Смотрите также архив погоды в соседних городах и на ближайших метеорологических станциях:

Погода на Мысе Белый Нос (Ненецкий АО, Россия) (60 км)
Погода в Имени Федорова (Ненецкий АО, Россия) (124 км)
Погода в Усть-Каре (Ненецкий АО, Россия) (139 км)
Погода в Варандее (Ненецкий АО, Россия) (179 км)
Погода в Inari Angeli (Финляндия) (186 км)
Погода в Марресаля (Ямало-Ненецкий АО, Россия) (197 км)
Погода в Воркуте (Коми, Россия) (271 км)
Погода на Мысе Константиновском (Ненецкий АО, Россия) (279 км)
Погода в Хорей-Вере (Ненецкий АО, Россия) (300 км)
Погода в Елецкой (Коми, Россия) (318 км)

Пояснения к столбцам:

Ветер - указаны скорость ветра в м/с - средняя за 10 мин, порывы в срок и между сроками (в фигурных скобках) и направление, откуда дует ветер: С - северный, СВ - северо-восточный, В - восточный, ЮВ - юго-восточный, Ю - южный, ЮЗ - юго-западный, З - западный, СЗ - северо-западный.
Видимость - горизонтальная дальность видимости в метрах или километрах. При видимости от 1 до 10 км при отсутствии осадков обычно наблюдается дымка, при ухудшении видимости до 1 км и менее - туман. В сухую погоду видимость может ухудшаться дымом, пылью или мглою.
Явления - указаны атмосферные явления, наблюдавшиеся в срок или в последний час перед сроком; фигурными скобками обозначены явления, наблюдавшиеся между сроками (за 1-3 часа до срока); квадратными скобками обозначены град или гололедные отложения с указанием их диаметра в мм.
Облачность - указаны через наклонную черту общая и нижняя облачность в баллах и высота нижней границы облаков в метрах; квадратными скобками обозначены формы облаков: Ci - перистые, Cs - перисто-слоистые, Cc - перисто-кучевые, Ac - высококучевые, As - высокослоистые, Sc - слоисто-кучевые, Ns - слоисто-дождевые, Cu - кучевые, Cb - кучево-дождевые. Подробнее классификацию облаков см. в Атласе облаков (PDF).
T - Температура воздуха - температура, измеренная на высоте 2 м над землей.
Td - Температура точки росы - температура, при понижении до которой содержащийся в воздухе водяной пар достигнет насыщения.
f - Относительная влажность воздуха - влажноcть воздуха, измеренная на высоте 2 м над землей.
Te - Эффективная температура - температура, которую ощущает одетый по сезону человек в тени. Характеристика душности погоды. При расчете учитывается влияние влажности воздуха и скорости ветра на теплоощущения человека.
Tes - Эффективная температура на солнце - температура, которую ощущает человек, с поправкой на солнечный нагрев. Характеристика знойности погоды. Зависит от высоты солнца над горизонтом, облачности и скорости ветра. Ночью, в пасмурную погоду, а также при ветре 12 м/с и более поправка равна нулю.
P - Атмосферное давление - приведенное к уровню моря атмосферное давление.
Po - Атмосферное давление - измеренное на уровне метеостанции атмосферное давление.
Tmin - Минимальная температура - минимум температуры воздуха на высоте 2 м над землей.
Tmax - Максимальная температура - максимум температуры воздуха на высоте 2 м над землей.
R - Количество осадков - Количество выпавших осадков за период времени, мм. При наведении курсора мыши на число - период времени, за который выпало указанное количество осадков.
R24 - Количество осадков - Количество выпавших осадков за 24 часа, мм.
S - Снежный покров - Высота снежного покрова, см. При наведении курсора мыши на число - состояние снежного покрова и степень покрытия местности в баллах.